Tracking 35331 objects as of 15-Sep-2026
HD Live streaming from Space Station
objects crossing your sky now

FREGAT DEB


FREGAT DEB is no longer on orbit


NORAD ID: 52960
Int'l Code: 2011-037PP
Launch date: July 18, 2011
Source: Commonwealth of Independent States (former USSR) (CIS)
Launch site: TYURATAM MISSILE AND SPACE COMPLEX (TTMTR)
Decay date: 2024-06-01

Note: This is SATELLITE DEBRIS
Your satellite tracking list
Your tracking list is empty




NASA's NSSDC Master Catalog

Two Line Element Set (TLE):
1 52960U 11037PP  23286.82053375  .00323516  16846-4  88967-2 0  9997
2 52960  51.3914  75.0848 1105590 209.5459 143.8333 13.34981200 65001
Source of the keplerian elements: AFSPC